This is the latest recevied weather packets stored in our database for station/object WC4PEM-6. If no packets are shown the sender has not sent any weather packets the latest 10 day(s).
| Time | Temp. | Humidity | Pressure | Rain* | Wind** | Luminosity | Snow |
|---|---|---|---|---|---|---|---|
| 1776996335 | 20.56° C | 80% | 1016.2 hPa | 0 mm | - | - | - |
| 1776996192 | 21.11° C | 79% | 1016.1 hPa | 0 mm | - | - | - |
| 1776996035 | 20.56° C | 79% | 1016.1 hPa | 0 mm | - | - | - |
| 1776995735 | 20.56° C | 79% | 1016.1 hPa | 0 mm | - | - | - |
| 1776995435 | 20.56° C | 79% | 1016.2 hPa | 0 mm | - | - | - |
| 1776995135 | 20.56° C | 78% | 1016.2 hPa | 0 mm | - | - | - |
| 1776994835 | 20.56° C | 79% | 1016.1 hPa | 0 mm | - | - | - |
| 1776994697 | 20.56° C | 79% | 1016.1 hPa | 0 mm | - | - | - |
| 1776994535 | 20.56° C | 79% | 1016.1 hPa | 0 mm | - | - | - |
| 1776994235 | 21.11° C | 79% | 1016.1 hPa | 0 mm | - | - | - |
| 1776993935 | 21.11° C | 79% | 1016.1 hPa | 0 mm | - | - | - |
| 1776993635 | 21.11° C | 79% | 1016 hPa | 0 mm | - | - | - |
| 1776993498 | 21.11° C | 78% | 1015.8 hPa | 0 mm | - | - | - |
| 1776993335 | 21.11° C | 78% | 1016 hPa | 0 mm | - | - | - |
| 1776993035 | 21.11° C | 78% | 1015.9 hPa | 0 mm | - | - | - |
| 1776992735 | 21.11° C | 78% | 1015.8 hPa | 0 mm | - | - | - |
| 1776992435 | 21.11° C | 78% | 1015.8 hPa | 0 mm | - | - | - |
| 1776992135 | 21.67° C | 78% | 1015.8 hPa | 0 mm | - | - | - |
| 1776991835 | 21.67° C | 77% | 1015.8 hPa | 0 mm | - | - | - |
| 1776991535 | 21.67° C | 76% | 1015.7 hPa | 0 mm | - | - | - |
| 1776991235 | 21.67° C | 76% | 1015.7 hPa | 0 mm | - | - | - |
| 1776991115 | 21.67° C | 75% | 1015.7 hPa | 0 mm | - | - | - |
| 1776990938 | 22.22° C | 74% | 1015.5 hPa | 0 mm | - | - | - |
| 1776990935 | 21.67° C | 75% | 1015.7 hPa | 0 mm | - | - | - |
| 1776990635 | 22.22° C | 74% | 1015.5 hPa | 0 mm | - | - | - |
* Rain latest hour (hover to see other rain measurements)
** Current wind speed in m/s (hover to see current wind gust speed)